Retour au catalogue

TDRS 10

ActifCommunicationsGEO
NORAD 27566·PAYLOAD·🇺🇸 United States

Lancé Dec 5, 2002 depuis Cape Canaveral Space Force Station

Loading…

TLE

FraisSource: Space-Track

Époque: Sep 14, 2026, 05:06 UTC

1 27566U 02055A   26257.21259068 -.00000243  00000-0  00000-0 0  9993
2 27566  10.2644  42.3374 0012589 235.4566 120.9548  0.98864275 87074

Suivez TDRS 10 en temps réel avec AllMySat

Download on the App Store